Погода в Дайр-эз-Зауре

Сирия     35°19′44″N   40°08′16″E
темп.,
°C
ветер,
м/с
пор.,
м/с
влажн.,
%
обл.,
%
осадки,
мм/ч
давл.,
гПа
погр.,
м
16 сентября, чт
чт1600:00+28сз47310 0.0 1008100
03:00+25сз813506 0.0 1009421
06:00+23сз48570 0.0 1011279
09:00+27сз55430 0.0 1011686
12:00+30зсз34310 0.0 10101538
15:00+32з35240 0.0 10082297
18:00+31зсз45260 0.0 10081249
21:00+29с34300 0.0 100869
17 сентября, пт
пт1700:00+27с34330 0.0 100764
03:00+25сз59440 0.0 1009291
06:00+23сз494612 0.0 1009229
09:00+26ссз664094 0.0 1010579
12:00+30сз32300 0.0 10081390
15:00+32зсз33270 0.0 10072212
18:00+31зюз33280 0.0 1007700
21:00+29ссз34330 0.0 100844
18 сентября, сб
сб1800:00+26ссз34370 0.0 100849
03:00+26сз22360 0.1 100812
06:00+24сз44368 0.0 100948
09:00+29сз55350 0.0 1010509
12:00+33зсз45220 0.0 10091899
15:00+34сз66180 0.0 10082685
18:00+32зсз46200 0.0 1008145
21:00+30зсз34250 0.0 100936
19 сентября, вс
вс1900:00+28зсз34270 0.0 100928
03:00+27зсз44280 0.0 101045
06:00+25сз47340 0.0 101090
09:00+30сз56290 0.0 1011464
12:00+34з45190 0.0 10112022
15:00+36з67150 0.0 10092628
18:00+33зсз44180 0.0 100867
21:00+30сз34170 0.0 101031
20 сентября, пн
пн2000:00+28зсз44190 0.0 100932
03:00+26зсз47360 0.0 1009109
06:00+25зсз34370 0.0 101046
09:00+29зсз45310 0.0 1011468
12:00+34зсз44210 0.0 10101434
15:00+37зсз56140 0.0 10082836
18:00+34зсз58160 0.0 1008145
21:00+31з59210 0.0 1009128